Regional Weather Roundup
Issued by NWS Columbia, SC

Home | Current Version | Previous Version | Text Only | Print | Product List | Glossary On
Versions: 1 2 3 4 5 6 7 8 9 10 11 12 13 14 15 16 17 18 19 20 21 22 23 24 25 26 27 28 29 30 31 32 33 34 35 36 37 38 39 40 41 42 43 44 45 46 47 48 49 50
000
ASUS42 KCAE 270410
RWRCAE
REGIONAL WEATHER ROUNDUP
NATIONAL WEATHER SERVICE COLUMBIA SC
1200 AM EDT WED MAY 27 2015

NOTE: "FAIR" INDICATES FEW OR NO CLOUDS BELOW 12,000 FEET WITH NO
SIGNIFICANT WEATHER AND/OR OBSTRUCTIONS TO VISIBILITY.

NOT ALL STATIONS ARE QUALITY CONTROLLED BY THE NATIONAL
WEATHER SERVICE. USE DATA WITH CAUTION...ESPECIALLY
DEWPOINT OBSERVATIONS.

SCZ001>056-GAZ040-063>065-077-270500-
...UPSTATE SOUTH CAROLINA...

CITY           SKY/WX    TMP DP  RH WIND       PRES   REMARKS
ANDERSON       CLOUDY    67  65  93 SE3       30.24F
LIBERTY        CLOUDY   N/A N/A N/A SE3       30.25S
SPARTANBURG    CLOUDY   N/A N/A N/A W3        30.25F
CLEMSON        CLOUDY    68  65  90 CALM      30.26F
GREENVILLE     LGT RAIN  67  65  93 S7        30.27F
GREENWOOD      LGT RAIN  67  66  97 CALM      30.27S
GREER          CLOUDY    67  66  97 S7        30.25R
ROCK HILL      LGT RAIN  67  66  97 SW6       30.28S
LAURENS        LGT RAIN  66  66 100 SE3       30.26R


...CENTRAL SOUTH CAROLINA...

CITY           SKY/WX    TMP DP  RH WIND       PRES   REMARKS
COLUMBIA APT   CLOUDY    71  65  81 CALM      30.26F
COLUMBIA OWENS CLOUDY    72  65  78 CALM      30.27F
FLORENCE       MOCLDY    73  69  87 S7        30.26S
MCENTIRE ANGB  CLOUDY    71  67  89 N5        30.27S
ORANGEBURG     LGT RAIN  74  66  76 NW10      30.28R
SUMTER SHAW    CLOUDY    77  69  76 S12       30.25R
NEWBERRY       CLOUDY    66  66 100 CALM      30.28F
AIKEN          LGT RAIN  66  64  94 E3        30.30F
BARNWELL       MOCLDY    72  70  94 CALM      30.29F
MANNING        MOCLDY    75  59  57 SW8       30.27R
CAMDEN         CLOUDY    70  66  88 W5        30.29R
LANCASTER      LGT RAIN  66  66 100 W3        30.28S
WINNSBORO      CLOUDY    66  66 100 CALM      30.26F


...EASTERN AND COASTAL SOUTH CAROLINA...

CITY           SKY/WX    TMP DP  RH WIND       PRES   REMARKS
MYRTLE BEACH   CLOUDY    77  66  69 CALM      30.29F
N MYRTLE BCH   CLOUDY    77  70  79 S10       30.27R
CONWAY         LGT RAIN  72  70  94 SE6       30.27S
MARION         FAIR     N/A N/A N/A S6        30.27S
HARTSVILLE     CLOUDY    73  70  88 S7        30.27R
FLORENCE       MOCLDY    73  69  87 S7        30.26S
CHARLESTON APT CLOUDY    75  71  87 S7        30.26S
MOUNT PLEASANT FAIR      77  72  83 S8        30.26S
WALTERBORO     CLOUDY    73  70  88 SW3       30.29R
BEAUFORT       CLOUDY    76  70  82 SW3       30.27R


...EASTERN GEORGIA...

CITY           SKY/WX    TMP DP  RH WIND       PRES   REMARKS
AUGUSTA BUSH F LGT RAIN  68  67  96 SE8       30.25F
AUGUSTA DANIEL LGT RAIN  70  67  90 SE8       30.26F
THOMSON        CLOUDY    70  70 100 E3        30.28F
WASHINGTON     FAIR      68  68 100 E3        30.24F
CLAXTON        RAIN      70  70 100 NW3       30.27R
SYLVANIA       CLOUDY    72  70  94 E5        30.27F
STATESBORO     CLOUDY    69  32  25 CALM      30.27F
SAVANNAH       CLOUDY    76  71  85 SW3       30.27S


...SOUTHERN NORTH CAROLINA...

CITY           SKY/WX    TMP DP  RH WIND       PRES   REMARKS
CHARLOTTE      RAIN      68  64  87 W5        30.26F
MONROE         CLOUDY    68  65  90 SW8       30.26R
WADESBORO      CLOUDY    78  67  69 S14G22    30.25R
ROCKINGHAM     CLOUDY    74  68  80 S7        30.25S
RUTHERFORDTON  RAIN      65  65 100 SE8       30.27R
ASHEVILLE      LGT RAIN  65  62  90 CALM      30.27F

$$


USA.gov is the U.S. government's official web portal to all federal, state and local government web resources and services.